Weather History for Baker, MT

Change the Weather History Date:

Friday, February 22, 2013

  Actual Average Record
Temperature  
Mean Temperature 26 °F -  
Max Temperature 39 °F 22 °F 64 °F (2002)
Min Temperature 12 °F -6 °F -7 °F (2003)
Degree Days  
Heating Degree Days 40    
Moisture  
Dew Point 15 °F    
Average Humidity 62    
Maximum Humidity 84    
Minimum Humidity 38    
Precipitation  
Precipitation 0.00 in - - ()
Sea Level Pressure  
Sea Level Pressure 29.90 in    
Wind  
Wind Speed 7 mph (SSW)    
Max Wind Speed 13 mph    
Max Gust Speed -    
Visibility 10 miles    
Events      
Averages and records for this station are not official NWS values.
T = Trace of Precipitation, MM = Missing Value Source: NWS Daily Summary

Daily Weather History Graph

Daily Weather History Graph

Search for Another Location

Airport:

Trip Planner

Search our weather history database for the weather conditions in past years. The results will help you decide how hot, cold, wet, or windy it might be!

Date:

Astronomy

Feb. 22, 2013 Rise Set
Actual Time 6:48 AM MST 5:33 PM MST
Civil Twilight 6:17 AM MST 6:04 PM MST
Nautical Twilight 5:42 AM MST 6:38 PM MST
Astronomical Twilight 5:08 AM MST 7:13 PM MST
Moon 2:40 PM MST (2/22) 4:42 AM MST (2/22)
Length of Visible Light 11h 46m
Length of Day
10h 45m
Waxing Gibbous, 90% of the Moon is Illuminated
Feb 22
Waxing Gibbous
Feb 25
Full
Mar 4
Last Quarter
Mar 11
New
Mar 19
First Quarter

Hourly Weather History & Observations

Time (MST) Temp. Windchill Dew Point Humidity Pressure Visibility Wind Dir Wind Speed Gust Speed Precip Events Conditions
12:51 AM 15.1 °F 7.7 °F 10.9 °F 84% 30.01 in 10.0 mi SE 4.6 mph - N/A   Partly Cloudy
1:51 AM 15.1 °F 5.2 °F 10.0 °F 80% 30.01 in 10.0 mi ESE 6.9 mph - N/A   Overcast
2:51 AM 16.0 °F 7.4 °F 10.9 °F 81% 29.98 in 10.0 mi SE 5.8 mph - N/A   Overcast
3:51 AM 16.0 °F 8.8 °F 10.9 °F 81% 29.99 in 10.0 mi SE 4.6 mph - N/A   Overcast
4:51 AM 12.9 °F 2.6 °F 7.0 °F 77% 29.99 in 10.0 mi SE 6.9 mph - N/A   Clear
6:51 AM 12.0 °F 4.1 °F 7.0 °F 80% 30.00 in 10.0 mi ESE 4.6 mph - N/A   Clear
7:51 AM 19.0 °F 12.3 °F 14.0 °F 81% 29.99 in 10.0 mi South 4.6 mph - N/A   Clear
9:51 AM 30.9 °F 22.8 °F 19.0 °F 61% 29.95 in 10.0 mi West 9.2 mph - N/A   Clear
10:51 AM 33.1 °F 24.9 °F 18.0 °F 54% 29.94 in 10.0 mi West 10.4 mph - N/A   Clear
11:51 AM 34.0 °F 25.5 °F 19.0 °F 54% 29.94 in 10.0 mi WSW 11.5 mph - N/A   Overcast
12:51 PM 37.0 °F 29.8 °F 18.0 °F 46% 29.91 in 10.0 mi West 10.4 mph - N/A   Partly Cloudy
1:51 PM 39.0 °F 32.3 °F 17.1 °F 41% 29.88 in 10.0 mi West 10.4 mph - N/A   Clear
2:51 PM 39.0 °F 32.3 °F 15.1 °F 38% 29.86 in 10.0 mi West 10.4 mph - N/A   Clear
3:51 PM 37.0 °F 31.0 °F 16.0 °F 42% 29.86 in 10.0 mi West 8.1 mph - N/A   Partly Cloudy
4:51 PM 36.0 °F 32.1 °F 18.0 °F 48% 29.86 in 10.0 mi WSW 4.6 mph - N/A   Overcast
5:51 PM 33.1 °F 27.7 °F 18.0 °F 54% 29.86 in 10.0 mi WSW 5.8 mph - N/A   Mostly Cloudy
6:51 PM 30.0 °F 22.4 °F 17.1 °F 59% 29.86 in 10.0 mi SW 8.1 mph - N/A   Clear
7:51 PM 30.0 °F 21.1 °F 17.1 °F 59% 29.83 in 10.0 mi SSW 10.4 mph - N/A   Clear
8:51 PM 28.9 °F 19.2 °F 17.1 °F 61% 29.81 in 10.0 mi SSW 11.5 mph - N/A   Clear
9:51 PM 28.0 °F 18.1 °F 17.1 °F 63% 29.78 in 10.0 mi SSW 11.5 mph - N/A   Clear
10:51 PM 26.1 °F 15.6 °F 16.0 °F 66% 29.76 in 10.0 mi South 11.5 mph - N/A   Clear
11:51 PM 26.1 °F 15.0 °F 15.1 °F 63% 29.75 in 10.0 mi South 12.7 mph - N/A   Clear